Regional Weather Roundup
Issued by NWS

Home | Current Version | Previous Version | Graphics & Text | Print | Product List | Glossary Off
Versions: 1 2 3 4 5 6 7 8 9 10 11 12 13 14 15 16 17 18 19 20 21 22 23 24 25 26 27 28 29 30 31 32 33 34 35 36 37 38 39 40 41 42 43 44 45 46 47 48 49 50

000
ASUS43 KTOP 220108
RWRKS

WEATHER ROUNDUP FOR KANSAS
NATIONAL WEATHER SERVICE GOODLAND KS
700 PM CST TUE NOV 21 2017

NOTE:  "FAIR" INDICATES FEW OR NO CLOUDS BELOW 12,000 FEET WITH NO
SIGNIFICANT WEATHER AND/OR OBSTRUCTIONS TO VISIBILITY.

KSZ001>006-013>018-027>032-041>047-220200-
NORTHWEST KANSAS

CITY           SKY/WX    TMP DP  RH WIND       PRES   REMARKS
GOODLAND       CLOUDY    33  23  66 CALM      30.33R
HAYS           CLEAR     31  16  54 N10       30.37R WCI  22
HILL CITY      CLOUDY    31  16  54 N8        30.37R
RUSSELL        CLOUDY    33  13  43 N10       30.35R WCI  25
$$

KSZ061>065-074>080-084>089-220200-
SOUTHWEST KANSAS

CITY           SKY/WX    TMP DP  RH WIND       PRES   REMARKS
DODGE CITY     CLEAR     31  18  58 N8        30.35R
ELKHART        CLEAR     43  31  61 N5        30.36R
GARDEN CITY    CLEAR     32  20  61 N8        30.36R
GREAT BEND     CLEAR     35  14  42 N7        30.37R
LIBERAL        CLEAR     43  25  49 NE12      30.36R
PRATT          CLEAR     38  14  37 N12       30.35R WCI  30
$$

KSZ066>073-081>083-090>101-220200-
SOUTHEAST KANSAS

CITY           SKY/WX    TMP DP  RH WIND       PRES   REMARKS
CHANUTE        CLEAR     40  14  34 N13       30.31R WCI  32
COFFEYVILLE    CLEAR     44  10  25 N15       30.30R
HUTCHINSON     CLEAR     37   8  30 N8        30.35R
MEDICINE LODGE   N/A     40  18  41 N10       30.35R WCI  33
NEWTON         CLEAR     32   8  36 N12       30.34R WCI  23
PARSONS        CLEAR     41  12  30 N12G23    30.30R
WICHITA INTL   CLEAR     41   6  23 N15       30.33R
WICHITA JABRA  CLEAR     35   9  33 N12       30.33R WCI  27
WICHITA MCCONL CLEAR     40   7  25 N15G25    30.32R WCI  31
WINFIELD       CLEAR     42   9  25 N14G23    30.32R
$$

KSZ007>012-019>026-033>040-048>060-102>105-220200-
NORTHEAST KANSAS

CITY           SKY/WX    TMP DP  RH WIND       PRES   REMARKS
CONCORDIA      CLOUDY    28  12  51 N8        30.39R
EMPORIA        CLEAR     33  14  45 N14G21    30.33R WCI  23
LAWRENCE       CLEAR     31  17  56 NW10      30.35R WCI  22
MANHATTAN      CLEAR     32  14  47 N6        30.38R
MARYSVILLE     CLOUDY    28  14  54 NW10      30.39R WCI  19
OLATHE IND     CLEAR     32  17  54 N17       30.33R WCI  21
OLATHE EXE     CLEAR     33  17  51 N10       30.32R WCI  25
SALINA         CLEAR     34  11  38 N13       30.39R WCI  25
TOPEKA BILLARD CLEAR     32  17  54 N8        30.36R
TOPEKA FORBES  CLEAR     34  16  47 N15       30.34R WCI  24
$$




USA.gov is the U.S. government's official web portal to all federal, state and local government web resources and services.